Iron Mountain, MI

7:26 AM CST on February 22, 2018 (GMT -0600)
Ford

Weather History for KIMT - February, 2014

Change the Weather History Date:

Thursday, February 13, 2014

  Actual Average Record
Temperature  
Mean Temperature 10 °F -  
Max Temperature 19 °F 27 °F 48 °F (2011)
Min Temperature 0 °F 3 °F -22 °F (1965)
Degree Days  
Heating Degree Days 56    
Moisture  
Dew Point 12 °F    
Average Humidity 87    
Maximum Humidity 93    
Minimum Humidity 79    
Precipitation  
Precipitation 0.04 in - - ()
Sea Level Pressure  
Sea Level Pressure 29.58 in    
Wind  
Wind Speed 5 mph (SE)    
Max Wind Speed 14 mph    
Max Gust Speed 21 mph    
Visibility 2 miles    
Events Fog , Snow    
Averages and records for this station are not official NWS values.
T = Trace of Precipitation, MM = Missing Value Source: NWS Daily Summary

Daily Weather History Graph

Daily Weather History Graph

Search for Another Location

Airport or City:

Trip Planner

Search our weather history database for the weather conditions in past years. The results will help you decide how hot, cold, wet, or windy it might be!

Date:

Astronomy

Feb. 13, 2014 Rise Set
Actual Time 6:57 AM CST 5:16 PM CST
Civil Twilight 6:27 AM CST 5:46 PM CST
Nautical Twilight 5:52 AM CST 6:21 PM CST
Astronomical Twilight 5:17 AM CST 6:56 PM CST
Moon 4:24 PM CST (2/13) 5:51 AM CST (2/13)
Length of Visible Light 11h 19m
Length of Day
10h 18m
Waxing Gibbous, 99% of the Moon is Illuminated
Feb 13
Waxing Gibbous
Feb 14
Full
Feb 22
Last Quarter
Mar 1
New
Mar 8
First Quarter

Hourly Weather History & Observations

Time (CST) Temp. Windchill Dew Point Humidity Pressure Visibility Wind Dir Wind Speed Gust Speed Precip Events Conditions
12:54 AM 3.9 °F - 1.0 °F 88% 29.96 in 5.0 mi Calm Calm - N/A   Clear
1:54 AM 1.0 °F - -2.0 °F 87% 29.95 in 4.0 mi Calm Calm - N/A   Clear
2:54 AM -0.0 °F - -4.0 °F 83% 29.91 in 5.0 mi Calm Calm - N/A   Clear
3:54 AM -0.9 °F - -5.1 °F 83% 29.89 in 4.0 mi Calm Calm - N/A   Clear
4:54 AM 3.9 °F -6.9 °F 1.0 °F 88% 29.87 in 6.0 mi SSE 5.8 mph - N/A   Clear
5:54 AM 5.0 °F -4.1 °F 1.9 °F 87% 29.87 in 6.0 mi South 4.6 mph - N/A   Clear
6:14 AM 5.0 °F -8.1 °F 1.4 °F 85% 29.75 in 6.0 mi ESE 8.1 mph - N/A   Mostly Cloudy
6:27 AM 5.0 °F -10.0 °F 1.4 °F 85% 29.73 in 5.0 mi SE 10.4 mph - 0.00 in   Overcast
6:43 AM 5.0 °F -10.0 °F 1.4 °F 85% 29.73 in 3.0 mi SE 10.4 mph - 0.00 in   Overcast
6:54 AM 5.0 °F -6.9 °F 1.9 °F 87% 29.81 in 4.0 mi SE 6.9 mph - 0.00 in   Overcast
7:15 AM 6.8 °F -0.1 °F 1.4 °F 79% 29.72 in 1.8 mi SE 3.5 mph - 0.00 in Snow Light Snow
7:51 AM 8.6 °F -2.6 °F 5.0 °F 85% 29.70 in 0.8 mi SE 6.9 mph - 0.00 in Snow Light Snow
7:54 AM 8.1 °F -3.2 °F 5.0 °F 87% 29.78 in 0.8 mi SE 6.9 mph - 0.00 in Snow Light Snow
8:44 AM 8.6 °F -1.3 °F 5.0 °F 85% 29.66 in 0.5 mi SE 5.8 mph - 0.00 in Fog , Snow Light Snow
8:54 AM 9.0 °F -0.9 °F 5.0 °F 84% 29.74 in 0.8 mi SE 5.8 mph - 0.00 in Snow Light Snow
9:02 AM 8.6 °F -2.6 °F 5.0 °F 85% 29.64 in 1.0 mi ESE 6.9 mph - 0.00 in Snow Light Snow
9:10 AM 8.6 °F -2.6 °F 6.8 °F 92% 29.63 in 0.8 mi ESE 6.9 mph - 0.00 in Snow Light Snow
9:45 AM 10.4 °F 0.8 °F 8.6 °F 92% 29.62 in 0.2 mi ESE 5.8 mph - 0.01 in Fog , Snow Snow
9:54 AM 12.0 °F 2.7 °F 9.0 °F 88% 29.71 in 0.5 mi SE 5.8 mph - 0.01 in Fog , Snow Snow
10:07 AM 14.0 °F 2.0 °F 10.4 °F 86% 29.62 in 1.0 mi SSE 9.2 mph - 0.00 in Snow Light Snow
10:27 AM 15.8 °F 4.2 °F 10.4 °F 79% 29.60 in 3.0 mi SE 9.2 mph - 0.00 in Snow Light Snow
10:35 AM 15.8 °F 2.7 °F 12.2 °F 86% 29.59 in 2.0 mi SSE 11.5 mph - 0.00 in Snow Light Snow
10:43 AM 15.8 °F 3.4 °F 12.2 °F 86% 29.58 in 1.5 mi SSE 10.4 mph 19.6 mph 0.00 in Snow Light Snow
10:54 AM 17.1 °F 3.0 °F 12.0 °F 81% 29.65 in 1.8 mi SSE 13.8 mph 20.7 mph 0.00 in Snow Light Snow
11:17 AM 17.6 °F 4.3 °F 12.2 °F 79% 29.56 in 0.8 mi SSE 12.7 mph - 0.00 in Snow Light Snow
11:30 AM 17.6 °F 5.0 °F 14.0 °F 86% 29.55 in 0.2 mi SSE 11.5 mph 19.6 mph 0.01 in Fog , Snow Snow
11:37 AM 17.6 °F 5.0 °F 14.0 °F 86% 29.54 in 0.2 mi SSE 11.5 mph - 0.01 in Fog , Snow Snow
11:54 AM 18.0 °F 4.8 °F 14.0 °F 84% 29.61 in 0.2 mi SE 12.7 mph - 0.02 in Fog , Snow Snow
12:08 PM 17.6 °F 6.4 °F 15.8 °F 93% 29.52 in 0.8 mi SSE 9.2 mph - 0.00 in Snow Light Snow
12:11 PM 19.4 °F 9.5 °F 15.8 °F 86% 29.51 in 1.2 mi SSE 8.1 mph - 0.00 in Snow Light Snow
12:18 PM 19.4 °F 7.9 °F 15.8 °F 86% 29.51 in 2.0 mi SSE 10.4 mph - 0.00 in Snow Light Snow
12:25 PM 19.4 °F 7.2 °F 15.8 °F 86% 29.50 in 1.0 mi SE 11.5 mph - 0.00 in Snow Light Snow
12:34 PM 19.4 °F 7.9 °F 15.8 °F 86% 29.49 in 0.8 mi SE 10.4 mph - 0.00 in Snow Light Snow
12:40 PM 19.4 °F 8.6 °F 15.8 °F 86% 29.49 in 1.0 mi SSE 9.2 mph - 0.00 in Snow Light Snow
12:54 PM 19.9 °F 10.1 °F 16.0 °F 85% 29.56 in 1.5 mi SSE 8.1 mph 17.3 mph 0.00 in Snow Light Snow
1:54 PM 19.9 °F 9.3 °F 16.0 °F 85% 29.52 in 1.0 mi SSE 9.2 mph - 0.00 in Snow Light Snow
2:02 PM 19.4 °F 8.6 °F 15.8 °F 86% 29.44 in 1.0 mi SSE 9.2 mph - 0.00 in Snow Light Snow
2:46 PM 19.4 °F 8.6 °F 15.8 °F 86% 29.43 in 1.8 mi SSE 9.2 mph - 0.00 in Snow Light Snow
2:54 PM 19.9 °F 11.1 °F 16.0 °F 85% 29.51 in 1.8 mi SSE 6.9 mph - 0.00 in   Overcast
3:05 PM 19.4 °F 8.6 °F 15.8 °F 86% 29.43 in 2.0 mi SSE 9.2 mph - 0.00 in Snow Light Snow
3:14 PM 19.4 °F 11.5 °F 15.8 °F 86% 29.43 in 1.8 mi SSE 5.8 mph - 0.00 in Snow Light Snow
3:33 PM 19.4 °F 10.4 °F 15.8 °F 86% 29.43 in 2.0 mi SSE 6.9 mph - 0.00 in   Overcast
3:54 PM 19.9 °F 11.1 °F 17.1 °F 89% 29.51 in 2.0 mi SSE 6.9 mph - 0.00 in   Overcast
4:23 PM 19.4 °F 11.5 °F 17.6 °F 93% 29.43 in 1.8 mi SSE 5.8 mph - 0.00 in Snow Light Snow
4:34 PM 19.4 °F 12.8 °F 17.6 °F 93% 29.43 in 2.0 mi SSE 4.6 mph - 0.00 in   Overcast
4:54 PM 19.9 °F 13.4 °F 17.1 °F 89% 29.50 in 1.8 mi SSE 4.6 mph - 0.01 in Snow Light Snow
5:02 PM 19.4 °F 12.8 °F 17.6 °F 93% 29.43 in 2.0 mi SSE 4.6 mph - 0.00 in Snow Light Snow
5:10 PM 19.4 °F 14.3 °F 17.6 °F 93% 29.42 in 1.8 mi SE 3.5 mph - 0.00 in Snow Light Snow
5:32 PM 19.4 °F 14.3 °F 17.6 °F 93% 29.43 in 2.5 mi SSE 3.5 mph - 0.00 in Snow Light Snow
5:38 PM 19.4 °F 14.3 °F 17.6 °F 93% 29.43 in 1.8 mi SSE 3.5 mph - 0.00 in Snow Light Snow
5:54 PM 19.9 °F - 18.0 °F 92% 29.51 in 1.8 mi Calm Calm - 0.00 in Snow Light Snow
6:05 PM 19.4 °F - 17.6 °F 93% 29.43 in 1.8 mi Calm Calm - 0.00 in Snow Light Snow
6:12 PM 19.4 °F - 17.6 °F 93% 29.43 in 2.0 mi Calm Calm - 0.00 in Snow Light Snow
6:54 PM 19.9 °F - 17.1 °F 89% 29.50 in 2.0 mi Calm Calm - 0.00 in Snow Light Snow
7:52 PM 17.6 °F - 15.8 °F 93% 29.43 in 1.8 mi Calm Calm - 0.00 in Snow Light Snow
7:54 PM 18.0 °F - 15.1 °F 88% 29.51 in 2.0 mi Calm Calm - 0.00 in Snow Light Snow
8:18 PM 19.4 °F - 15.8 °F 86% 29.43 in 1.5 mi Calm Calm - 0.00 in Snow Light Snow
8:26 PM 19.4 °F - 15.8 °F 86% 29.43 in 1.5 mi Calm Calm - 0.00 in Snow Light Snow
8:41 PM 19.4 °F 14.3 °F 15.8 °F 86% 29.43 in 2.0 mi NW 3.5 mph - 0.00 in Snow Light Snow
8:54 PM 18.0 °F 12.7 °F 16.0 °F 92% 29.49 in 2.5 mi NNW 3.5 mph - 0.00 in Snow Light Snow
9:20 PM 17.6 °F 12.3 °F 14.0 °F 86% 29.42 in 3.0 mi NW 3.5 mph - 0.00 in Snow Light Snow
9:54 PM 15.1 °F 7.7 °F 12.0 °F 88% 29.49 in 4.0 mi NW 4.6 mph - 0.00 in   Overcast
10:54 PM 18.0 °F 8.7 °F 14.0 °F 84% 29.49 in 5.0 mi NW 6.9 mph - 0.00 in Snow Light Snow
11:54 PM 19.0 °F 7.5 °F 14.0 °F 81% 29.51 in 5.0 mi NW 10.4 mph - 0.00 in   Haze